2001 FF193

Initial reported observation by Kitt Peak on 2001-03-27.
(Discoverer will be defined when the object is numbered. See this note on how discoverers are determined.)

Orbit

Orbit type: Distant object
One opposition object seen prior.

Note: WebGL enabled browser required.

epoch2001-03-12.0
epoch JD2451980.5
perihelion date2001-03-12.00000
perihelion JD2451980.50000
argument of perihelion (°)13.43375
ascending node (°)170.02751
inclination (°)1.94570
eccentricity0.0000000
perihelion distance (AU)44.7322786
Tisserand w.r.t. Jupiter6.0
ΔV w.r.t. Earth (km/sec)12.5
semimajor axis (AU)44.7322786
mean anomaly (°)0.00000
mean daily motion (°/day)0.00329440
aphelion distance (AU)44.732
period (years)299
P-vector [x]-0.99815265
P-vector [y]-0.05840833
P-vector [z]-0.01672585
Q-vector [x]0.06047079
Q-vector [y]-0.92843764
Q-vector [z]-0.36653355
absolute magnitude7.7
phase slope0.15
orbit noteE
referenceMPO 20839
observations used4
oppositions1
arc length (days)1
first opposition used2001
last opposition used2001
residual rms (arc-secs)0.04
perturbers coarse indicator
perturbers precise indicator0000
first observation date used2001-03-27.0
last observation date used2001-03-28.0
computer nameMPCM
Minimum Orbit Intersection Distances (in AU)
for orbit epoch: 2451980.5, reference: MPO
Mercury44.2675
Venus44.0058
Earth43.7157
Mars43.0675
Jupiter39.2757
Saturn34.6675
Uranus24.667
Neptune14.3452

Observations

4 total observations over interval: 2001 03 27.35949 – 2001 03 28.37128
These data are available for download (format description).

Date (UT) J2000 RA J2000 Dec Magn Location Ref
2001 03 27.35949 12 13 19.61 -00 56 16.5 23.8 R 695 – Kitt Peak MPS 37682
2001 03 27.38158 12 13 19.51 -00 56 15.8 23.9 R 695 – Kitt Peak MPS 37682
2001 03 28.30316 12 13 15.63 -00 55 50.2 23.9 R 695 – Kitt Peak MPS 37682
2001 03 28.37128 12 13 15.34 -00 55 48.4 23.7 R 695 – Kitt Peak MPS 37682